When you browse on this site, cookies collect data to enhance your experience and personalize the content and advertising you see.
Visit our Privacy Policy to learn more. By continuing to use the site, you agree to this use of cookies and data.
EN

Hourly Weather Smolice

Today, 21 September, Monday

Time Temperature Precipitation Wind Pressure Humidity
00:00 +12°C° 0 mm 2 mps 751 mmHg 67%
01:00 +11°C° 0 mm 3 mps 751 mmHg 70%
02:00 +12°C° 0 mm 2 mps 751 mmHg 72%
03:00 +12°C° 0 mm 2 mps 751 mmHg 74%
04:00 +10°C° 0 mm 2 mps 751 mmHg 76%
05:00 +12°C° 0 mm 2 mps 751 mmHg 75%
06:00 +12°C° 0 mm 2 mps 751 mmHg 73%
07:00 +13°C° 0 mm 2 mps 751 mmHg 72%
08:00 +15°C° 0 mm 2 mps 751 mmHg 65%
09:00 +17°C° 0 mm 2 mps 751 mmHg 58%
10:00 +19°C° 0 mm 2 mps 751 mmHg 51%
11:00 +21°C° 0 mm 2 mps 751 mmHg 47%
12:00 +23°C° 0 mm 2 mps 750 mmHg 43%
13:00 +24°C° 0 mm 2 mps 750 mmHg 40%
14:00 +24°C° 0 mm 2 mps 750 mmHg 41%
15:00 +24°C° 0 mm 1 mps 750 mmHg 42%
16:00 +24°C° 0 mm 1 mps 749 mmHg 43%
17:00 +22°C° 0 mm 1 mps 749 mmHg 46%
18:00 +20°C° 0 mm 1 mps 749 mmHg 50%
19:00 +18°C° 0 mm 2 mps 749 mmHg 54%
20:00 +17°C° 0 mm 2 mps 749 mmHg 55%
21:00 +17°C° 0 mm 2 mps 749 mmHg 57%
22:00 +16°C° 0 mm 2 mps 749 mmHg 59%
23:00 +16°C° 0 mm 2 mps 749 mmHg 61%

Tomorrow, 22 September, Tuesday

Time Temperature Precipitation Wind Pressure Humidity
00:00 +16°C° 0 mm 2 mps 749 mmHg 62%
01:00 +15°C° 0 mm 2 mps 749 mmHg 64%
02:00 +15°C° 0 mm 2 mps 748 mmHg 65%
03:00 +15°C° 0 mm 2 mps 748 mmHg 66%
04:00 +15°C° 0 mm 2 mps 748 mmHg 67%
05:00 +15°C° 0 mm 2 mps 748 mmHg 65%
06:00 +16°C° 0 mm 3 mps 748 mmHg 63%
07:00 +17°C° 0 mm 3 mps 748 mmHg 61%
08:00 +19°C° 0 mm 3 mps 748 mmHg 56%
09:00 +21°C° 0 mm 3 mps 748 mmHg 50%
10:00 +25°C° 0 mm 4 mps 748 mmHg 44%
11:00 +26°C° 0 mm 4 mps 747 mmHg 41%
12:00 +27°C° 0 mm 4 mps 747 mmHg 37%
13:00 +28°C° 0 mm 4 mps 747 mmHg 33%
14:00 +27°C° 0 mm 3 mps 746 mmHg 36%
15:00 +27°C° 0 mm 3 mps 746 mmHg 39%
16:00 +27°C° 0 mm 3 mps 745 mmHg 42%
17:00 +25°C° 0 mm 3 mps 745 mmHg 46%
18:00 +22°C° 0 mm 3 mps 745 mmHg 50%
19:00 +20°C° 0 mm 3 mps 745 mmHg 54%
20:00 +20°C° 0 mm 3 mps 745 mmHg 54%
21:00 +19°C° 0 mm 3 mps 744 mmHg 55%
22:00 +19°C° 0 mm 3 mps 744 mmHg 55%
23:00 +18°C° 0 mm 3 mps 744 mmHg 56%

Day after tomorrow, 23 September, Wednesday

Time Temperature Precipitation Wind Pressure Humidity
00:00 +18°C° 0 mm 3 mps 744 mmHg 56%
01:00 +18°C° 0 mm 3 mps 744 mmHg 57%
02:00 +17°C° 0 mm 3 mps 743 mmHg 56%
03:00 +17°C° 0 mm 3 mps 743 mmHg 56%
04:00 +17°C° 0 mm 3 mps 743 mmHg 56%
05:00 +17°C° 0 mm 3 mps 743 mmHg 56%
06:00 +18°C° 0 mm 3 mps 743 mmHg 57%
07:00 +18°C° 0 mm 3 mps 742 mmHg 57%
08:00 +20°C° 0 mm 4 mps 742 mmHg 52%
09:00 +23°C° 0 mm 4 mps 742 mmHg 46%
10:00 +26°C° 0 mm 4 mps 742 mmHg 41%
11:00 +27°C° 0 mm 4 mps 742 mmHg 39%
12:00 +28°C° 0 mm 4 mps 742 mmHg 38%
13:00 +29°C° 0 mm 4 mps 741 mmHg 36%
14:00 +28°C° 0 mm 4 mps 741 mmHg 39%
15:00 +28°C° 0 mm 3 mps 741 mmHg 41%
16:00 +27°C° 0 mm 2 mps 741 mmHg 44%
17:00 +26°C° 0 mm 2 mps 741 mmHg 49%
18:00 +24°C° 0 mm 2 mps 741 mmHg 54%
19:00 +21°C° 0 mm 3 mps 741 mmHg 59%
20:00 +20°C° 0.1 mm 2 mps 741 mmHg 62%
21:00 +20°C° 0.1 mm 2 mps 741 mmHg 65%
22:00 +19°C° 0.1 mm 2 mps 741 mmHg 68%
23:00 +19°C° 0 mm 2 mps 741 mmHg 71%

24 September, Thursday

Time Temperature Precipitation Wind Pressure Humidity
00:00 +19°C° 0 mm 2 mps 741 mmHg 74%
01:00 +18°C° 0 mm 2 mps 741 mmHg 77%
02:00 +18°C° 0 mm 3 mps 741 mmHg 78%
03:00 +17°C° 0 mm 3 mps 741 mmHg 80%
04:00 +17°C° 0 mm 3 mps 741 mmHg 81%
05:00 +17°C° 0 mm 3 mps 741 mmHg 81%
06:00 +18°C° 0 mm 3 mps 741 mmHg 81%
07:00 +18°C° 0 mm 4 mps 742 mmHg 81%
08:00 +20°C° 0 mm 3 mps 742 mmHg 75%
09:00 +21°C° 0 mm 3 mps 742 mmHg 69%
10:00 +24°C° 0 mm 3 mps 742 mmHg 62%
11:00 +25°C° 0 mm 3 mps 742 mmHg 57%
12:00 +26°C° 0 mm 3 mps 742 mmHg 51%
13:00 +27°C° 0 mm 3 mps 742 mmHg 45%
14:00 +26°C° 0 mm 3 mps 742 mmHg 47%
15:00 +26°C° 0 mm 2 mps 742 mmHg 49%
16:00 +26°C° 0 mm 2 mps 742 mmHg 51%
17:00 +24°C° 0 mm 2 mps 742 mmHg 54%
18:00 +23°C° 0 mm 2 mps 742 mmHg 58%
19:00 +20°C° 0 mm 2 mps 742 mmHg 61%
20:00 +20°C° 0 mm 2 mps 743 mmHg 63%
21:00 +19°C° 0 mm 2 mps 743 mmHg 64%
22:00 +19°C° 0 mm 2 mps 743 mmHg 66%
23:00 +18°C° 0 mm 2 mps 742 mmHg 68%

25 September, Friday

Time Temperature Precipitation Wind Pressure Humidity
00:00 +18°C° 0 mm 3 mps 742 mmHg 70%
01:00 +18°C° 0 mm 3 mps 742 mmHg 72%
02:00 +17°C° 0 mm 3 mps 741 mmHg 75%
03:00 +17°C° 0 mm 3 mps 741 mmHg 78%
04:00 +17°C° 0 mm 3 mps 741 mmHg 81%
05:00 +17°C° 0 mm 4 mps 740 mmHg 80%
06:00 +18°C° 0 mm 4 mps 740 mmHg 78%
07:00 +17°C° 0 mm 5 mps 739 mmHg 76%
08:00 +20°C° 0 mm 5 mps 739 mmHg 71%
09:00 +21°C° 0 mm 6 mps 738 mmHg 65%
10:00 +23°C° 0 mm 6 mps 738 mmHg 60%
11:00 +23°C° 0 mm 7 mps 737 mmHg 57%
12:00 +24°C° 0 mm 7 mps 737 mmHg 53%
13:00 +26°C° 0 mm 7 mps 736 mmHg 49%
14:00 +24°C° 0.1 mm 7 mps 736 mmHg 57%
15:00 +22°C° 0.1 mm 6 mps 736 mmHg 64%
16:00 +20°C° 0.1 mm 6 mps 735 mmHg 72%
17:00 +20°C° 0.2 mm 6 mps 735 mmHg 73%
18:00 +20°C° 0.2 mm 7 mps 735 mmHg 74%
19:00 +20°C° 0.2 mm 8 mps 735 mmHg 76%
20:00 +18°C° 0.8 mm 7 mps 735 mmHg 79%
21:00 +18°C° 0.8 mm 7 mps 735 mmHg 82%
22:00 +19°C° 0.8 mm 6 mps 734 mmHg 85%
23:00 +17°C° 1 mm 7 mps 735 mmHg 86%

26 September, Saturday

Time Temperature Precipitation Wind Pressure Humidity
00:00 +15°C° 1 mm 7 mps 735 mmHg 87%
01:00 +14°C° 1 mm 7 mps 735 mmHg 88%
02:00 +14°C° 0.4 mm 6 mps 735 mmHg 87%
03:00 +13°C° 0.4 mm 6 mps 736 mmHg 87%
04:00 +13°C° 0.4 mm 5 mps 736 mmHg 86%
05:00 +13°C° 0 mm 5 mps 737 mmHg 85%
06:00 +13°C° 0 mm 4 mps 737 mmHg 85%
07:00 +12°C° 0 mm 4 mps 738 mmHg 84%
08:00 +13°C° 0 mm 3 mps 738 mmHg 80%
09:00 +14°C° 0 mm 3 mps 739 mmHg 76%
10:00 +14°C° 0 mm 3 mps 739 mmHg 71%
11:00 +16°C° 0 mm 2 mps 739 mmHg 68%
12:00 +17°C° 0 mm 2 mps 739 mmHg 65%
13:00 +17°C° 0 mm 2 mps 739 mmHg 62%
14:00 +17°C° 0 mm 3 mps 739 mmHg 64%
15:00 +17°C° 0 mm 3 mps 739 mmHg 66%
16:00 +17°C° 0 mm 4 mps 739 mmHg 69%
17:00 +15°C° 0.2 mm 4 mps 739 mmHg 73%
18:00 +15°C° 0.2 mm 4 mps 739 mmHg 78%
19:00 +14°C° 0.2 mm 5 mps 738 mmHg 82%
20:00 +14°C° 2.4 mm 5 mps 738 mmHg 86%
21:00 +14°C° 2.4 mm 5 mps 738 mmHg 90%
22:00 +14°C° 2.4 mm 5 mps 737 mmHg 94%
23:00 +14°C° 1.7 mm 5 mps 737 mmHg 95%
Show more